Home   Weather   Lierbyen   Past weeks

Flag for Norway Past Weather in Lierbyen, Norway — Yesterday and Last 2 Weeks

Now
45 °F

Passing clouds.


Feels Like: 37 °F
Forecast: 18 / 27 °F
Wind: 17 mph from Southwest

Location: Statfjord B

Current Time: Dec 2, 2016 at 11:32:30 pm

Latest Report: Dec 2, 2016 at 10:50 pm


Visibility: N/A

Pressure: 30.24 "Hg

Humidity: 76%

Dew Point: 37 °F

Location of LierbyenLocation

Past Weather in Lierbyen — Graph

°F

Lierbyen Temperature Yesterday

Maximum temperature yesterday: 48 °F (at 12:20 am)
Minimum temperature yesterday: 39 °F (at 6:20 pm)
Average temperature yesterday: 44 °F

High & Low Weather Summary for the Past Weeks

 TemperatureHumidityPressure
High50 °F (Nov 24, 8:50 pm)100% (Nov 24, 3:50 pm)30.51 "Hg (Nov 24, 3:50 pm)
Low39 °F (Dec 1, 6:20 pm)42% (Nov 27, 6:50 am)28.91 "Hg (Nov 18, 4:20 am)
Average45 °F75%29.84 "Hg
* Reported Nov 17 10:20 pm — Dec 2 10:20 pm, Lierbyen, Weather by CustomWeather, © 2016

Note: Actual official high and low records may vary slightly from our data, if they occured in-between our weather recording intervals... More about our weather records

Advertising

Lierbyen Weather History for the Previous 24 Hours

Scroll right to see more
 ConditionsComfort  
Time TempWeatherWind HumidityBarometerVisibility
10:20 pm
Fri, Dec 2
45 °FOvercast.17 mph71%30.24 "HgN/A
9:50 pm45 °FOvercast.17 mph66%30.24 "HgN/A
9:20 pm45 °FPassing clouds.15 mph61%30.27 "HgN/A
8:50 pm45 °FPassing clouds.16 mph61%30.27 "HgN/A
8:20 pm45 °FPassing clouds.15 mph57%30.27 "HgN/A
7:50 pm45 °FPartly cloudy.15 mph57%30.27 "HgN/A
7:20 pm43 °FPassing clouds.9 mph66%30.27 "HgN/A
6:50 pm43 °FPassing clouds.9 mph66%30.30 "HgN/A
6:20 pm43 °FPassing clouds.9 mph71%30.27 "HgN/A
5:50 pm43 °FPassing clouds.8 mph66%30.30 "HgN/A
5:20 pm43 °FPassing clouds.10 mph61%30.30 "HgN/A
4:50 pm41 °FPassing clouds.10 mph76%30.30 "HgN/A
4:20 pm41 °FSprinkles. Passing clouds.13 mph81%30.30 "HgN/A
3:50 pm41 °FPassing clouds.7 mph76%30.30 "HgN/A
3:20 pm43 °FLight rain. Passing clouds.12 mph71%30.30 "HgN/A
2:50 pm43 °FPartly sunny.9 mph66%30.30 "HgN/A
2:20 pm45 °FScattered clouds.10 mph61%30.30 "HgN/A
1:50 pm43 °FPartly sunny.10 mph66%30.30 "HgN/A
1:20 pm45 °FPartly sunny.10 mph53%30.30 "HgN/A
12:50 pm45 °FPartly sunny.10 mph57%30.30 "HgN/A
12:20 pm43 °FPartly sunny.9 mph57%30.30 "HgN/A
11:50 am43 °FPartly sunny.14 mph53%30.30 "HgN/A
11:20 am43 °FPartly sunny.12 mph61%30.30 "HgN/A
10:50 am43 °FPartly sunny.12 mph61%30.30 "HgN/A
10:20 am43 °FPartly sunny.15 mph66%30.27 "HgN/A
9:50 am43 °FPartly sunny.13 mph61%30.27 "HgN/A
9:20 am43 °FPartly sunny.15 mph53%30.27 "HgN/A
8:50 am43 °FPassing clouds.17 mph57%30.27 "HgN/A
8:20 am43 °FPassing clouds.18 mph61%30.27 "HgN/A
7:50 am43 °FPassing clouds.17 mph66%30.27 "HgN/A
7:20 am43 °FPassing clouds.15 mph57%30.24 "HgN/A
6:50 am43 °FPassing clouds.17 mph57%30.24 "HgN/A
6:20 am43 °FPassing clouds.17 mph57%30.24 "HgN/A
5:50 am43 °FPassing clouds.18 mph71%30.21 "HgN/A
5:20 am43 °FPassing clouds.15 mph71%30.21 "HgN/A
4:50 am43 °FPassing clouds.22 mph66%30.21 "HgN/A
4:20 am43 °FPassing clouds.22 mph66%30.21 "HgN/A
3:50 am43 °FPassing clouds.18 mph71%30.21 "HgN/A
3:20 am43 °FPassing clouds.22 mph71%30.21 "HgN/A
2:50 am43 °FPassing clouds.22 mph71%30.21 "HgN/A
2:20 am43 °FSprinkles. Passing clouds.24 mph76%30.18 "HgN/A
1:50 am43 °FSprinkles. Passing clouds.23 mph71%30.18 "HgN/A
1:20 am43 °FPassing clouds.24 mph66%30.18 "HgN/A
12:50 am43 °FPassing clouds.25 mph57%30.15 "HgN/A
12:20 am43 °FPassing clouds.25 mph66%30.15 "HgN/A
11:50 pm
Thu, Dec 1
43 °FPassing clouds.28 mph46%30.15 "HgN/A
11:20 pm43 °FPassing clouds.26 mph53%30.12 "HgN/A
Weather by CustomWeather, © 2016

See weather overviewHow to use our weather pages